Погода в Каменском

Россия / Республика Крым     45°16′51″N   35°31′31″E
темп.,
°C
ветер,
м/с
пор.,
м/с
влажн.,
%
обл.,
%
осадки,
мм/ч
давл.,
гПа
погр.,
м
18 января, пн
пн1800:00−3сз91192100 0.8 1011670
03:00−5зсз91193100 1.3 1013575
06:00−7зсз81091100 0.3 1015480
09:00−7зсз81089100 0.4 1016496
12:00−7зсз7980100 0.0 1018551
15:00−5зсз467684 0.0 1017492
18:00−8з12730 0.0 1018160
21:00−8ю227649 0.0 101866
19 января, вт
вт1900:00−6з81380100 0.1 1019465
03:00−7зсз7108283 0.1 1019402
06:00−8зсз698255 0.0 1020362
09:00−9зсз7108377 0.0 1021430
12:00−7зсз687836 0.0 1022761
15:00−6зсз687929 0.0 1021649
18:00−8зсз578172 0.0 1023336
21:00−9з578375 0.0 1024346
20 января, ср
ср2000:00−9зсз578593 0.0 1024312
03:00−8зсз588680 0.0 1024292
06:00−8зсз458624 0.0 1024217
09:00−9юз128818 0.0 102554
12:00−4ююв347935 0.0 1025181
15:00+1ю258066 0.0 1024338
18:00−1ю117486 0.0 102474
21:000ююв228591 0.0 102468
21 января, чт
чт2100:000ссв018899 0.1 102444
03:000с018598 0.1 102365
06:00+1ююв2382100 0.0 102351
09:00+3ююв339299 0.1 102459
12:00+4ююв229586 0.0 102442
15:00+4ююз239746 0.0 102450
18:00+3ююз479320 0.0 1025126
21:00+5ююз7149118 0.0 1025351
22 января, пт
пт2200:00+5ю7138719 0.0 1025349
03:00+5ю8148319 0.0 1025366
06:00+5ю588246 0.0 1023154
09:00+5ю7138469 0.0 1024254
12:00+7ю8138434 0.0 1023396
15:00+8ю7118217 0.0 1021369
18:00+6ю611857 0.0 1021199
21:00+7ю712854 0.0 1020236